sat.trackr.live / text

‹ back to catalog

OTB

NORAD 44341 · 2019-036C

PAYLOAD ACTIVE UNKNOWN

§ Identity

Operator
Country
US
Launch date
2019-06-25
Launch site
AFETR
Launch vehicle
Mass (kg)
RCS (m²)

External: N2YO · Heavens-Above · Gunter

§ Orbital elements

Epoch: 2026-09-13T01:03:09.828000Z

Period
98.81 min
Inclination
23.9957°
Eccentricity
0.0010742
Mean motion
14.57341461 rev/d
Perigee alt
694.2 km
Apogee alt
709.4 km
Semi-major
7,079.9 km
B*
1.4077e-4
RAAN
143.6804°
Arg perigee
250.4876°
Mean anomaly
109.4456°
Rev number
38,420

§ Raw data

OTB1 44341U 19036C   26256.04386375  .00000869  00000+0  14077-3 0  99962 44341  23.9957 143.6804 0010742 250.4876 109.4456 14.57341461384207

JSON: /api/v1/satellites/44341 · /tle

For live sub-satellite position, see the globe view (requires WebGL).

§ Visibility from observer

Set your observer location to see the next 7 days of passes ≥ 10°. The values pass through the URL so the page stays shareable.

No JS? Fill the form by hand. The geolocation button needs JavaScript.